Time,TemperatureF,DewpointF,PressureIn,WindDirection,WindDirectionDegrees,WindSpeedMPH,WindSpeedGustMPH,Humidity,HourlyPrecipIn,Conditions,Clouds,dailyrainin,SoftwareType,DateUTC
2013-05-11 00:00:00,79.0,70.0,29.94,NNE,20,13.0,-999.0,73,-99.99,,,-99.99,,2013-05-11 04:00:00,
2013-05-11 00:23:00,79.0,70.0,29.94,NNE,20,13.0,-999.0,73,-99.99,,,-99.99,,2013-05-11 04:23:00,
2013-05-11 00:32:00,79.0,70.0,29.94,NNE,20,13.0,-999.0,73,-99.99,,,-99.99,,2013-05-11 04:32:00,
2013-05-11 00:42:00,79.0,70.0,29.94,NNE,20,13.0,-999.0,73,-99.99,,,-99.99,,2013-05-11 04:42:00,
2013-05-11 00:52:00,79.0,70.0,29.94,NNE,20,13.0,-999.0,73,-99.99,,,-99.99,,2013-05-11 04:52:00,
2013-05-11 02:00:00,78.0,74.0,29.96,NNE,30,13.0,-999.0,87,-99.99,,,-99.99,,2013-05-11 06:00:00,
2013-05-11 02:21:00,78.0,74.0,29.96,NNE,30,13.0,-999.0,87,-99.99,,,-99.99,,2013-05-11 06:21:00,
2013-05-11 02:31:00,78.0,74.0,29.96,NNE,30,13.0,-999.0,87,-99.99,,,-99.99,,2013-05-11 06:31:00,
2013-05-11 02:42:00,78.0,74.0,29.96,NNE,30,13.0,-999.0,87,-99.99,,,-99.99,,2013-05-11 06:42:00,
2013-05-11 02:52:00,78.0,74.0,29.96,NNE,30,13.0,-999.0,87,-99.99,,,-99.99,,2013-05-11 06:52:00,
2013-05-11 03:00:00,78.0,74.0,29.93,NNE,30,13.0,-999.0,87,-99.99,,,-99.99,,2013-05-11 07:00:00,
2013-05-11 03:11:00,78.0,74.0,29.93,NNE,30,13.0,-999.0,87,-99.99,,,-99.99,,2013-05-11 07:11:00,
2013-05-11 03:21:00,78.0,74.0,29.93,NNE,30,13.0,-999.0,87,-99.99,,,-99.99,,2013-05-11 07:21:00,
2013-05-11 03:31:00,78.0,74.0,29.93,NNE,30,13.0,-999.0,87,-99.99,,,-99.99,,2013-05-11 07:31:00,
2013-05-11 03:41:00,78.0,74.0,29.93,NNE,30,13.0,-999.0,87,-99.99,,,-99.99,,2013-05-11 07:41:00,
2013-05-11 03:52:00,78.0,74.0,29.93,NNE,30,13.0,-999.0,87,-99.99,,,-99.99,,2013-05-11 07:52:00,
2013-05-11 04:00:00,78.0,74.0,29.93,NNE,20,16.0,-999.0,87,-99.99,,,-99.99,,2013-05-11 08:00:00,
2013-05-11 04:21:00,78.0,74.0,29.93,NNE,20,16.0,-999.0,87,-99.99,,,-99.99,,2013-05-11 08:21:00,
2013-05-11 04:31:00,78.0,74.0,29.93,NNE,20,16.0,-999.0,87,-99.99,,,-99.99,,2013-05-11 08:31:00,
2013-05-11 04:42:00,78.0,74.0,29.93,NNE,20,16.0,-999.0,87,-99.99,,,-99.99,,2013-05-11 08:42:00,
2013-05-11 04:51:00,78.0,74.0,29.93,NNE,20,16.0,-999.0,87,-99.99,,,-99.99,,2013-05-11 08:51:00,
2013-05-11 06:00:00,78.0,71.0,29.91,NNE,30,15.0,-999.0,79,-99.99,,,-99.99,,2013-05-11 10:00:00,
2013-05-11 06:22:00,78.0,71.0,29.91,NNE,30,15.0,-999.0,79,-99.99,,,-99.99,,2013-05-11 10:22:00,
2013-05-11 06:32:00,78.0,71.0,29.91,NNE,30,15.0,-999.0,79,-99.99,,,-99.99,,2013-05-11 10:32:00,
2013-05-11 06:41:00,78.0,71.0,29.91,NNE,30,15.0,-999.0,79,-99.99,,,-99.99,,2013-05-11 10:41:00,
2013-05-11 06:52:00,78.0,71.0,29.91,NNE,30,15.0,-999.0,79,-99.99,,,-99.99,,2013-05-11 10:52:00,
2013-05-11 07:00:00,79.0,73.0,29.92,NE,40,15.0,-999.0,82,-99.99,,,-99.99,,2013-05-11 11:00:00,
2013-05-11 07:21:00,79.0,73.0,29.92,NE,40,15.0,-999.0,82,-99.99,,,-99.99,,2013-05-11 11:21:00,
2013-05-11 07:31:00,79.0,73.0,29.92,NE,40,15.0,-999.0,82,-99.99,,,-99.99,,2013-05-11 11:31:00,
2013-05-11 07:42:00,79.0,73.0,29.92,NE,40,15.0,-999.0,82,-99.99,,,-99.99,,2013-05-11 11:42:00,
2013-05-11 07:51:00,79.0,73.0,29.92,NE,40,15.0,-999.0,82,-99.99,,,-99.99,,2013-05-11 11:51:00,
2013-05-11 12:00:00,81.0,66.0,29.94,ENE,60,10.0,-999.0,61,-99.99,,,-99.99,,2013-05-11 16:00:00,
2013-05-11 12:22:00,81.0,66.0,29.94,ENE,60,10.0,-999.0,61,-99.99,,,-99.99,,2013-05-11 16:22:00,
2013-05-11 12:32:00,81.0,66.0,29.94,ENE,60,10.0,-999.0,61,-99.99,,,-99.99,,2013-05-11 16:32:00,
2013-05-11 12:42:00,81.0,66.0,29.94,ENE,60,10.0,-999.0,61,-99.99,,,-99.99,,2013-05-11 16:42:00,
2013-05-11 12:52:00,81.0,66.0,29.94,ENE,60,10.0,-999.0,61,-99.99,,,-99.99,,2013-05-11 16:52:00,
2013-05-11 15:00:00,82.0,73.0,29.91,ENE,60,10.0,-999.0,73,-99.99,,,-99.99,,2013-05-11 19:00:00,
2013-05-11 15:21:00,82.0,73.0,29.91,ENE,60,10.0,-999.0,73,-99.99,,,-99.99,,2013-05-11 19:21:00,
2013-05-11 15:31:00,82.0,73.0,29.91,ENE,60,10.0,-999.0,73,-99.99,,,-99.99,,2013-05-11 19:31:00,
2013-05-11 15:41:00,82.0,73.0,29.91,ENE,60,10.0,-999.0,73,-99.99,,,-99.99,,2013-05-11 19:41:00,
2013-05-11 15:52:00,82.0,73.0,29.91,ENE,60,10.0,-999.0,73,-99.99,,,-99.99,,2013-05-11 19:52:00,